STARLINK-1117 (44952 NORAD) Tracking and Keplerian Element Data

This shows tracking and keplerian element data for the satellite.

Feedback or suggestion? Click here.




ElementValue
Catalog44952
NameSTARLINK-1117
Epoch Orbit183
Epoch Day52.91667824
Epoch Year2020
RAAN168.9002
Inclination52.9966
Eccentricity0.0001753
Argument of Perigee5.6466
Mean Anonmoly15.1755
Mean Motion15.7320241
Decay Rate-0.0001262
L11 44952U 20001AQ 20052.91667824 -.00012620 00000-0 -85587-4 0 9999
L22 44952 52.9966 168.9002 0001753 5.6466 15.1755 15.73202410 1833

Live tracking and technical data element details for STARLINK-1117 (NORAD 44952). STARLINK-1117 can be tracked NOW for your location showing map with azimuth and elevation plus other details from your city location.

Track the satellite on the map from your city or location and see movement details for azimuth, elevation, latitude, longitude, range, height, and movement on the map or in text.







IsCatalogInMostPopularTable: catalog: 44952, numindb: 11
Update: records affected: 1



GetName: 44952 STARLINK-1117

Hit Count: updated at: Mon, 24 Feb 2020 18:23:02 GMT